Flag for Brazil Weather past 2 weeks in Boa Vista, Roraima, Brazil

Now
75 °F

Clear.


Feels Like: 75 °F
Forecast: 73 / 87 °F
Wind: 2 mph from Northeast

Location: Boa Vista Aeropor-To

Current Time: Jul 4, 2015 at 3:11:49 AM

Latest Report: Jul 4, 2015 at 2:00 AM


Visibility: 10 mi

Pressure: 29.86 "Hg

Humidity: 89%

Dew point: 72 °F

Location of Boa VistaLocation

Historic Weather in Boa Vista — Graph

°F

Boa Vista temperature yesterday

Maximum temperature yesterday: 86 °F (at 5:00 PM)
Minimum temperature yesterday: 41 °F (at 9:00 AM)
Average temperature yesterday: 70 °F

Past Weeks' High & Low Weather Summary

 TemperatureHumidityPressure
High90 °F (Jun 23, 3:00 PM)100% (Jun 25, 12:00 PM)30.07 "Hg (Jun 25, 12:00 PM)
Low37 °F (Jun 25, 12:00 PM)46% (Jun 23, 3:00 PM)29.83 "Hg (Jun 19, 4:00 PM)
Average79 °F78%29.96 "Hg
* Reported Jun 19 2:00 AM — Jul 4 2:00 AM, Boa Vista, Weather by CustomWeather, © 2015

Note: Actual official high and low records may vary slightly from our data, if they occured in-between our weather recording intervals... More about our weather records

Advertising

Boa Vista weather history for previous 24 hours

 ConditionsComfort  
Time TempWeatherWind HumidityBarometerVisibility
2:00 AM
Sat, Jul 4
75 °FClear.2 mph89%29.86 "Hg10 mi
1:00 AM75 °FClear.2 mph89%29.86 "Hg10 mi
12:00 AM75 °FClear.3 mph94%29.89 "Hg10 mi
11:00 PM
Fri, Jul 3
77 °FClear.2 mph89%29.92 "Hg10 mi
10:00 PM77 °FClear.5 mph89%29.92 "Hg10 mi
9:00 PM77 °FClear.3 mph89%29.92 "Hg10 mi
8:00 PM79 °FPassing clouds.5 mph79%29.89 "HgN/A
7:00 PM81 °FThundershowers. Passing clouds.6 mph74%N/AN/A
6:00 PM81 °FScattered showers. Scattered clouds.7 mph74%N/AN/A
5:00 PM86 °FScattered showers. Scattered clouds.9 mph66%N/AN/A
4:00 PM84 °FScattered showers. Scattered clouds.6 mph66%N/AN/A
3:00 PM82 °FScattered showers. Scattered clouds.8 mph70%N/AN/A
2:00 PM45 °FScattered showers. Broken clouds.6 mph100%29.89 "HgN/A
1:00 PMN/ALight rain.7 mphN/AN/A6 mi
12:00 PM43 °FScattered showers. Broken clouds.3 mph100%29.95 "HgN/A
11:00 AM46 °FScattered showers. Broken clouds.13 mph100%29.98 "HgN/A
10:00 AM45 °FScattered showers. Broken clouds.15 mph100%29.98 "HgN/A
9:00 AM41 °FScattered showers. Broken clouds.6 mph100%29.98 "HgN/A
8:00 AM73 °FBroken clouds.1 mph94%29.98 "HgN/A
7:00 AM73 °FRain. Broken clouds.3 mphN/AN/A2 mi
6:00 AM73 °FPartly sunny.2 mph94%29.92 "HgN/A
5:00 AM73 °FPartly cloudy.6 mph94%29.89 "HgN/A
4:00 AM73 °FPartly cloudy.6 mph94%29.89 "HgN/A
3:00 AM75 °FLight rain. Partly cloudy.3 mph94%29.89 "Hg2 mi
Weather by CustomWeather, © 2015

See weather overviewHow to use our weather pages